�N����,����,�~����,�C��,���x,�C��,����,���ϕ���,�ő�u�ԕ���,�ő厞����,���˗�,�I�_���x,�n�����x,�ő啗���N��,DTYPE
"19/04/24","00:10",0.0,19.2,76.2,1012.1,74.6,0.7,1.8,117.4,0.00,15.0,17.6,"00:04:48",1
"19/04/24","00:20",0.0,19.1,76.4,1012.1,277.8,0.6,1.6,345.7,0.00,14.9,17.4,"00:13:28",1
"19/04/24","00:30",0.0,18.9,77.2,1012.1,287.3,0.3,1.0,327.0,0.00,14.9,17.2,"00:26:24",1
"19/04/24","00:40",0.0,18.8,78.4,1012.1,289.2,0.6,1.4,331.3,0.00,15.0,17.2,"00:32:08",1
"19/04/24","00:50",0.0,18.7,78.8,1012.3,303.3,0.6,1.3,338.7,0.00,15.0,17.3,"00:48:56",1
"19/04/24","01:00",0.0,18.5,79.2,1012.3,333.1,1.1,2.1,339.2,0.00,14.9,17.3,"00:54:08",1
"19/04/24","01:10",0.0,18.5,81.6,1011.6,336.7,0.7,1.7,34.9,0.00,15.3,17.1,"01:07:44",1
"19/04/24","01:20",0.0,18.4,82.3,1011.6,323.8,0.7,1.8,330.2,0.00,15.4,17.1,"01:12:40",1
"19/04/24","01:30",0.0,18.3,83.3,1011.2,311.7,1.0,2.0,319.6,0.00,15.5,17.1,"01:25:04",1
"19/04/24","01:40",0.2,18.2,84.4,1010.9,308.7,1.0,2.0,345.9,0.00,15.6,17.1,"01:38:08",1
"19/04/24","01:50",0.0,18.0,85.2,1011.2,295.9,1.0,1.8,320.0,0.00,15.5,17.0,"01:44:08",1
"19/04/24","02:00",0.0,17.9,86.4,1010.9,314.6,1.1,2.1,333.1,0.00,15.6,17.0,"01:53:52",1
"19/04/24","02:10",0.0,18.1,87.1,1010.9,55.5,1.2,3.4,115.2,0.00,16.0,16.9,"02:07:12",1
"19/04/24","02:20",0.0,18.3,86.7,1010.4,90.5,1.2,3.2,104.4,0.00,16.1,16.9,"02:12:16",1
"19/04/24","02:30",0.0,18.3,86.4,1010.9,2.1,0.8,2.5,338.4,0.00,16.0,17.0,"02:26:16",1
"19/04/24","02:40",0.0,18.3,86.0,1010.4,49.5,1.0,2.1,121.5,0.00,16.0,17.0,"02:30:08",1
"19/04/24","02:50",0.0,18.2,86.4,1010.4,316.7,1.1,2.5,331.3,0.00,15.9,16.8,"02:42:32",1
"19/04/24","03:00",0.0,18.1,86.5,1010.4,286.5,1.0,1.9,322.2,0.00,15.9,17.0,"02:51:20",1
"19/04/24","03:10",0.0,18.0,86.8,1010.4,167.2,0.7,1.8,121.0,0.00,15.8,16.7,"03:09:04",1
"19/04/24","03:20",0.0,18.2,86.3,1010.2,100.2,0.8,2.6,108.5,0.00,15.9,16.8,"03:14:08",1
"19/04/24","03:30",0.0,18.3,85.8,1010.2,98.6,0.8,2.0,111.7,0.00,15.9,17.0,"03:24:08",1
"19/04/24","03:40",0.0,18.4,85.5,1010.9,218.1,0.8,1.7,192.5,0.00,16.0,16.8,"03:34:16",1
"19/04/24","03:50",0.0,18.3,85.2,1010.9,277.8,0.7,1.6,328.7,0.00,15.8,16.8,"03:47:52",1
"19/04/24","04:00",0.0,18.2,85.7,1010.9,318.5,1.1,1.7,330.6,0.00,15.8,16.8,"03:56:00",1
"19/04/24","04:10",0.0,18.0,86.5,1010.7,326.2,1.1,2.5,339.2,0.00,15.8,16.6,"04:04:56",1
"19/04/24","04:20",0.0,17.8,87.1,1010.9,266.1,0.3,1.0,324.6,0.00,15.7,16.8,"04:10:08",1
"19/04/24","04:30",0.0,17.9,86.8,1010.4,169.0,0.5,1.3,123.6,0.00,15.7,16.8,"04:27:12",1
"19/04/24","04:40",0.0,18.0,86.8,1010.4,221.7,0.3,1.2,127.2,0.00,15.8,16.9,"04:32:24",1
"19/04/24","04:50",0.0,17.8,87.0,1010.7,321.5,1.1,2.1,322.1,0.00,15.6,16.7,"04:43:12",1
"19/04/24","05:00",0.0,17.6,87.8,1010.2,320.7,1.1,1.6,320.8,0.00,15.6,16.6,"04:52:48",1
"19/04/24","05:10",0.0,17.4,88.5,1010.0,307.6,0.6,1.3,317.4,0.00,15.5,16.4,"05:00:48",1
"19/04/24","05:20",0.0,17.3,88.6,1010.2,154.8,0.3,1.2,100.1,0.00,15.4,16.7,"05:15:20",1
"19/04/24","05:30",0.0,17.3,88.6,1009.7,214.3,0.6,1.3,342.4,0.00,15.4,16.5,"05:29:20",1
"19/04/24","05:40",0.0,17.4,88.8,1010.2,287.1,0.7,1.3,267.6,0.00,15.6,16.6,"05:34:32",1
"19/04/24","05:50",0.0,17.4,89.1,1010.2,281.7,0.8,2.0,306.6,0.00,15.6,16.7,"05:40:08",1
"19/04/24","06:00",0.0,17.4,88.7,1010.2,187.7,1.1,2.7,124.7,0.00,15.6,16.7,"05:56:00",1
"19/04/24","06:10",0.0,17.9,87.3,1010.2,134.6,1.1,2.1,140.9,0.00,15.8,16.8,"06:00:08",1
"19/04/24","06:20",0.0,18.1,86.1,1010.2,319.4,0.6,2.2,151.7,0.00,15.8,16.5,"06:10:40",1
"19/04/24","06:30",0.0,18.0,86.1,1010.4,307.3,0.8,1.6,316.4,0.00,15.7,16.7,"06:29:44",1
"19/04/24","06:40",0.0,17.9,86.3,1009.7,322.1,1.5,2.0,331.0,0.00,15.6,16.6,"06:33:12",1
"19/04/24","06:50",0.2,17.8,87.0,1010.0,321.3,1.2,1.9,325.5,0.00,15.6,16.5,"06:42:24",1
"19/04/24","07:00",0.0,17.8,87.6,1010.2,297.5,0.8,1.3,325.7,0.00,15.8,16.6,"06:57:04",1
"19/04/24","07:10",0.0,17.8,87.7,1010.0,307.9,0.3,1.0,310.5,0.00,15.8,16.5,"07:00:24",1
"19/04/24","07:20",0.0,18.0,87.4,1010.2,1.8,0.5,1.4,331.5,0.00,15.9,16.6,"07:12:16",1
"19/04/24","07:30",0.0,18.2,87.1,1010.0,347.2,0.3,1.6,2.9,0.00,16.1,16.5,"07:22:40",1
"19/04/24","07:40",0.0,18.2,86.7,1010.0,48.0,0.3,1.2,18.3,0.00,16.0,16.5,"07:37:28",1
"19/04/24","07:50",0.0,18.3,86.5,1010.2,26.5,0.5,1.7,26.2,0.01,16.0,16.7,"07:47:36",1
"19/04/24","08:00",0.0,18.5,85.8,1010.0,28.4,0.5,1.1,43.1,0.02,16.1,16.7,"07:56:48",1
"19/04/24","08:10",0.0,18.6,85.1,1010.2,52.5,0.6,1.8,94.8,0.01,16.1,16.6,"08:07:36",1
"19/04/24","08:20",0.0,18.6,84.5,1010.4,57.2,0.5,1.3,136.0,0.01,16.0,16.6,"08:17:52",1
"19/04/24","08:30",0.2,18.7,84.4,1010.0,341.1,0.5,1.1,113.9,0.01,16.1,16.6,"08:20:32",1
"19/04/24","08:40",0.4,18.7,84.8,1010.4,325.3,0.7,1.4,322.8,0.02,16.1,16.6,"08:36:48",1
"19/04/24","08:50",0.2,18.5,85.9,1010.0,348.6,0.8,1.9,311.3,0.02,16.1,16.7,"08:42:00",1
"19/04/24","09:00",0.0,18.3,86.8,1009.7,342.9,0.6,1.3,328.9,0.01,16.1,16.7,"08:50:24",1
"19/04/24","09:10",0.0,18.3,87.5,1009.7,340.4,0.8,2.1,348.1,0.03,16.2,16.7,"09:09:04",1
"19/04/24","09:20",0.2,18.3,87.8,1010.0,297.1,0.5,1.4,330.7,0.02,16.3,16.7,"09:19:28",1
"19/04/24","09:30",0.0,18.3,88.1,1010.0,1.5,0.8,1.9,319.1,0.03,16.3,16.9,"09:21:20",1
"19/04/24","09:40",0.0,18.6,88.0,1009.7,17.3,0.6,1.8,27.5,0.07,16.6,16.7,"09:34:16",1
"19/04/24","09:50",0.0,19.1,87.6,1009.5,22.2,0.6,1.7,46.9,0.09,17.0,16.8,"09:41:20",1
"19/04/24","10:00",0.0,19.2,87.0,1009.5,88.3,1.2,3.2,117.5,0.09,17.0,16.9,"09:58:16",1
"19/04/24","10:10",0.0,19.1,86.8,1009.7,98.8,1.0,2.2,125.8,0.06,16.9,17.0,"10:05:36",1
"19/04/24","10:20",0.0,19.5,86.4,1009.5,98.3,0.6,2.1,119.4,0.07,17.2,17.1,"10:12:16",1
"19/04/24","10:30",0.0,19.7,85.4,1009.5,75.4,0.7,2.1,93.9,0.10,17.2,17.3,"10:28:00",1
"19/04/24","10:40",0.0,20.0,84.5,1008.8,98.8,1.5,3.2,110.0,0.12,17.3,17.2,"10:36:48",1
"19/04/24","10:50",0.0,20.2,83.7,1009.0,105.4,1.6,3.5,112.1,0.12,17.4,17.1,"10:47:52",1
"19/04/24","11:00",0.0,20.1,82.9,1008.8,108.1,2.0,4.4,124.5,0.11,17.1,17.2,"10:51:44",1
"19/04/24","11:10",0.0,20.9,81.5,1008.6,100.7,1.7,3.9,119.8,0.21,17.7,17.4,"11:04:32",1
"19/04/24","11:20",0.0,20.5,81.0,1008.6,97.5,2.1,4.8,121.3,0.18,17.2,17.3,"11:16:24",1
"19/04/24","11:30",0.0,20.7,79.7,1008.1,104.9,2.3,4.7,129.3,0.11,17.1,17.3,"11:22:00",1
"19/04/24","11:40",0.0,20.5,79.4,1007.8,99.1,2.1,4.3,109.8,0.05,16.9,17.4,"11:37:04",1
"19/04/24","11:50",0.0,20.5,79.9,1007.8,92.3,2.1,5.4,98.1,0.08,17.0,17.7,"11:48:24",1
"19/04/24","12:00",0.0,20.5,79.9,1007.6,84.8,1.8,3.9,118.6,0.11,17.0,17.6,"11:55:36",1
"19/04/24","12:10",0.0,20.8,78.7,1007.4,83.6,1.8,3.2,109.9,0.10,17.0,17.8,"12:01:44",1
"19/04/24","12:20",0.0,20.7,78.2,1007.4,81.8,1.6,4.0,71.0,0.04,16.8,17.7,"12:10:32",1
"19/04/24","12:30",0.0,20.5,78.6,1007.1,86.0,1.8,3.6,68.6,0.05,16.7,17.6,"12:20:56",1
"19/04/24","12:40",0.0,20.5,78.6,1007.1,85.0,2.0,4.2,31.8,0.04,16.7,17.7,"12:32:00",1
"19/04/24","12:50",0.0,20.4,78.6,1006.7,104.1,1.5,4.1,112.4,0.02,16.6,17.7,"12:48:00",1
"19/04/24","13:00",0.0,20.4,78.6,1007.1,104.1,2.2,4.5,115.6,0.02,16.6,17.8,"12:52:32",1
"19/04/24","13:10",0.0,20.4,78.7,1006.9,105.3,1.5,3.3,110.5,0.04,16.6,17.6,"13:02:08",1
"19/04/24","13:20",0.0,20.6,78.0,1006.9,95.2,1.6,2.8,107.4,0.04,16.7,17.7,"13:10:48",1
"19/04/24","13:30",0.0,20.7,77.4,1006.9,92.8,1.6,4.2,91.7,0.05,16.6,17.4,"13:24:40",1
"19/04/24","13:40",0.0,20.6,77.3,1006.4,90.6,1.7,4.3,111.4,0.03,16.5,17.6,"13:39:52",1
"19/04/24","13:50",0.0,20.5,77.9,1006.4,87.0,1.5,3.2,102.8,0.04,16.6,17.7,"13:43:44",1
"19/04/24","14:00",0.0,20.3,79.0,1006.0,49.4,1.1,3.1,30.1,0.02,16.6,17.7,"13:52:08",1
"19/04/24","14:10",0.2,20.1,80.3,1006.2,19.0,0.8,1.8,21.6,0.02,16.6,17.6,"14:02:40",1
"19/04/24","14:20",0.0,20.1,81.1,1005.7,63.2,1.0,2.1,41.6,0.06,16.8,17.6,"14:10:40",1
"19/04/24","14:30",0.0,20.5,80.6,1005.5,57.8,1.1,2.6,79.8,0.08,17.1,17.6,"14:28:16",1
"19/04/24","14:40",0.0,20.8,79.0,1005.5,103.5,2.0,4.5,113.0,0.10,17.1,17.6,"14:34:32",1
"19/04/24","14:50",0.0,21.3,77.1,1005.0,107.6,2.2,4.3,117.3,0.18,17.2,17.6,"14:47:04",1
"19/04/24","15:00",0.0,21.5,75.1,1005.2,107.1,2.5,5.2,122.7,0.13,16.9,17.6,"14:59:04",1
"19/04/24","15:10",0.0,21.4,74.9,1005.0,91.8,2.0,3.5,43.7,0.06,16.8,17.7,"15:04:00",1
"19/04/24","15:20",0.0,21.3,74.9,1004.8,90.2,2.1,3.5,79.1,0.06,16.7,17.9,"15:11:44",1
"19/04/24","15:30",0.0,21.3,75.0,1004.8,101.6,2.0,4.4,104.4,0.05,16.7,17.8,"15:20:56",1
"19/04/24","15:40",0.0,21.3,75.1,1005.0,102.6,2.1,4.0,107.8,0.05,16.8,17.8,"15:32:32",1
"19/04/24","15:50",0.0,21.2,74.9,1004.8,75.5,1.7,3.1,52.4,0.01,16.6,18.0,"15:46:40",1
"19/04/24","16:00",0.0,21.1,75.2,1004.3,81.5,1.3,3.2,60.9,0.00,16.6,17.9,"15:58:24",1
"19/04/24","16:10",0.0,21.1,75.2,1004.1,89.9,1.7,4.9,101.7,0.01,16.6,17.6,"16:09:36",1
"19/04/24","16:20",0.0,21.0,75.6,1004.3,99.7,2.0,4.0,99.0,0.01,16.6,17.8,"16:12:40",1
"19/04/24","16:30",0.0,21.0,75.7,1004.3,95.7,1.5,2.7,107.2,0.01,16.6,17.7,"16:27:52",1
"19/04/24","16:40",0.0,21.0,75.6,1004.5,101.9,1.3,2.6,86.7,0.01,16.6,17.6,"16:33:36",1
"19/04/24","16:50",0.0,21.0,75.8,1004.5,111.4,1.6,3.5,113.3,0.01,16.6,17.8,"16:48:48",1
"19/04/24","17:00",0.0,21.0,76.1,1004.1,109.9,1.7,3.5,118.7,0.03,16.7,17.9,"16:57:04",1
"19/04/24","17:10",0.0,20.9,76.6,1003.4,107.4,2.3,5.4,118.9,0.03,16.7,17.7,"17:02:16",1
"19/04/24","17:20",0.0,20.9,76.6,1003.6,113.5,2.1,4.7,114.1,0.03,16.7,17.8,"17:14:32",1
"19/04/24","17:30",0.0,20.9,76.7,1003.6,106.1,1.2,3.2,91.3,0.02,16.7,17.8,"17:23:52",1
"19/04/24","17:40",0.0,20.9,76.4,1003.6,103.0,1.2,2.8,128.4,0.02,16.6,17.5,"17:35:44",1
"19/04/24","17:50",0.0,20.8,76.9,1003.6,103.5,1.0,2.1,123.8,0.00,16.6,17.7,"17:43:12",1
"19/04/24","18:00",0.0,20.6,77.6,1003.4,113.2,1.8,4.0,126.6,0.00,16.6,17.6,"17:53:36",1
"19/04/24","18:10",0.0,20.3,78.9,1002.9,112.0,2.1,3.9,116.5,0.00,16.6,17.6,"18:07:36",1
"19/04/24","18:20",0.2,20.0,81.1,1002.9,112.9,1.3,3.5,115.9,0.00,16.7,17.7,"18:10:08",1
"19/04/24","18:30",0.4,19.6,83.0,1003.1,90.7,0.8,2.9,121.6,0.00,16.7,17.5,"18:23:36",1
"19/04/24","18:40",0.0,19.3,85.0,1003.1,12.8,0.7,2.2,311.6,0.00,16.8,17.6,"18:39:12",1
"19/04/24","18:50",0.0,19.0,86.3,1002.6,351.9,0.8,1.9,345.5,0.00,16.7,17.6,"18:40:24",1
"19/04/24","19:00",0.2,18.9,87.2,1002.9,118.5,0.7,1.9,116.4,0.00,16.8,17.5,"18:53:04",1
"19/04/24","19:10",0.0,18.8,87.7,1002.6,37.3,0.7,1.7,14.9,0.00,16.8,17.5,"19:03:44",1
"19/04/24","19:20",0.0,18.7,88.2,1002.9,155.2,0.6,1.4,155.8,0.00,16.7,17.4,"19:15:28",1
"19/04/24","19:30",0.0,18.5,88.7,1003.4,273.7,1.0,1.6,297.3,0.00,16.6,17.2,"19:22:08",1
"19/04/24","19:40",0.0,18.5,89.1,1002.9,285.7,1.2,1.7,268.3,0.00,16.7,17.3,"19:30:24",1
"19/04/24","19:50",0.0,18.4,89.7,1002.4,308.9,1.3,1.9,308.5,0.00,16.7,17.5,"19:42:40",1
"19/04/24","20:00",0.0,18.2,90.0,1002.6,283.4,1.2,2.0,301.5,0.00,16.6,17.4,"19:58:08",1
"19/04/24","20:10",0.0,18.1,91.0,1003.1,278.2,1.5,2.5,262.9,0.00,16.6,17.2,"20:09:44",1
"19/04/24","20:20",0.0,18.0,91.2,1002.6,277.6,1.5,2.5,267.2,0.00,16.6,17.2,"20:15:04",1
"19/04/24","20:30",0.0,17.8,91.5,1002.6,329.3,1.2,1.9,343.4,0.00,16.4,17.5,"20:25:28",1
"19/04/24","20:40",0.0,17.7,91.9,1002.9,316.0,1.2,1.8,329.7,0.00,16.4,17.2,"20:35:12",1
"19/04/24","20:50",0.0,17.5,92.5,1002.9,306.2,1.2,2.2,321.4,0.00,16.3,17.1,"20:44:08",1
"19/04/24","21:00",0.0,17.4,92.7,1002.6,276.8,0.8,1.3,290.9,0.00,16.2,17.0,"20:50:08",1
"19/04/24","21:10",0.0,17.2,93.0,1002.4,309.4,1.1,1.6,322.9,0.00,16.1,17.0,"21:03:36",1
"19/04/24","21:20",0.0,17.1,93.3,1002.4,307.1,0.8,1.9,335.4,0.00,16.0,16.9,"21:10:02",1
"19/04/24","21:30",0.0,16.9,93.7,1002.2,335.5,1.5,2.1,339.2,0.00,15.9,16.9,"21:22:32",1
"19/04/24","21:40",0.0,17.0,93.8,1002.2,296.6,1.1,1.9,339.0,0.00,16.0,16.8,"21:30:08",1
"19/04/24","21:50",0.0,17.1,94.2,1002.4,310.6,1.1,1.6,312.7,0.00,16.2,16.8,"21:43:52",1
"19/04/24","22:00",0.0,17.1,93.8,1002.2,344.2,0.8,1.8,336.9,0.00,16.1,16.9,"21:59:04",1
"19/04/24","22:10",0.0,17.0,94.3,1002.4,298.3,1.2,1.7,336.0,0.00,16.1,16.7,"22:01:44",1
"19/04/24","22:20",0.0,17.1,94.6,1002.2,314.5,1.0,1.7,317.3,0.00,16.3,16.6,"22:15:04",1
"19/04/24","22:30",0.0,17.0,94.4,1001.9,311.2,0.8,1.4,347.1,0.00,16.1,16.8,"22:20:32",1
"19/04/24","22:40",0.0,17.1,94.6,1001.9,308.5,1.1,1.7,321.6,0.00,16.3,16.5,"22:32:48",1
"19/04/24","22:50",0.0,17.2,94.8,1001.7,319.7,1.3,2.0,314.9,0.00,16.4,16.7,"22:42:48",1
"19/04/24","23:00",0.0,17.2,94.9,1001.9,279.7,1.0,1.8,293.7,0.00,16.4,16.6,"22:50:16",1
"19/04/24","23:10",0.0,17.3,94.9,1002.2,279.0,1.1,1.7,270.0,0.00,16.5,16.7,"23:01:52",1
"19/04/24","23:20",0.0,17.4,94.7,1001.7,314.5,1.2,1.7,328.7,0.00,16.6,16.7,"23:14:40",1
"19/04/24","23:30",1.0,17.4,94.9,1001.9,313.5,1.2,2.0,325.2,0.00,16.6,16.9,"23:26:48",1
"19/04/24","23:40",0.2,17.4,95.0,1001.9,319.0,1.2,1.9,309.3,0.00,16.6,16.6,"23:30:48",1
"19/04/24","23:50",0.0,17.4,95.1,1001.9,303.4,1.2,1.6,313.7,0.00,16.6,16.7,"23:42:32",1
"19/04/24","24:00",0.0,17.5,95.3,1001.7,305.0,1.1,1.8,321.5,0.00,16.8,16.7,"23:50:02",1
